TimeEDT,TemperatureF,Dew PointF,Humidity,Sea Level PressureIn,VisibilityMPH,Wind Direction,Wind SpeedMPH,Gust SpeedMPH,PrecipitationIn,Events,Conditions,WindDirDegrees,DateUTC
12:53 AM,35.1,12.9,40,29.98,10.0,NNE,3.5,-,N/A,,Clear,30,2013-03-22 04:53:00
1:53 AM,34.0,12.0,40,29.98,10.0,ENE,3.5,-,N/A,,Clear,60,2013-03-22 05:53:00
2:53 AM,33.1,12.0,42,29.99,10.0,NE,3.5,-,N/A,,Clear,50,2013-03-22 06:53:00
3:53 AM,32.0,14.0,48,30.02,10.0,Calm,Calm,-,N/A,,Clear,0,2013-03-22 07:53:00
4:53 AM,33.1,12.9,43,30.01,10.0,Calm,Calm,-,N/A,,Clear,0,2013-03-22 08:53:00
5:53 AM,32.0,14.0,48,30.03,10.0,Calm,Calm,-,N/A,,Scattered Clouds,0,2013-03-22 09:53:00
6:53 AM,32.0,12.9,45,30.05,10.0,ESE,3.5,-,N/A,,Clear,110,2013-03-22 10:53:00
7:53 AM,30.9,14.0,50,30.08,10.0,Calm,Calm,-,N/A,,Mostly Cloudy,0,2013-03-22 11:53:00
8:53 AM,33.1,12.9,43,30.08,10.0,SE,4.6,-,N/A,,Overcast,130,2013-03-22 12:53:00
9:53 AM,35.1,14.0,42,30.09,10.0,ESE,4.6,-,N/A,,Overcast,120,2013-03-22 13:53:00
10:53 AM,37.0,14.0,39,30.10,10.0,Calm,Calm,-,N/A,,Overcast,0,2013-03-22 14:53:00
11:53 AM,41.0,12.9,32,30.08,10.0,Variable,4.6,-,N/A,,Mostly Cloudy,0,2013-03-22 15:53:00
12:53 PM,45.0,12.9,27,30.06,10.0,SW,9.2,-,N/A,,Scattered Clouds,220,2013-03-22 16:53:00
1:53 PM,46.0,14.0,28,30.06,10.0,SW,11.5,-,N/A,,Overcast,230,2013-03-22 17:53:00
2:53 PM,46.0,15.1,29,30.03,10.0,WSW,10.4,-,N/A,,Overcast,240,2013-03-22 18:53:00
3:53 PM,48.0,15.1,27,30.02,10.0,SSW,9.2,-,N/A,,Overcast,210,2013-03-22 19:53:00
4:53 PM,46.9,16.0,29,30.01,10.0,SW,8.1,-,N/A,,Overcast,230,2013-03-22 20:53:00
5:53 PM,46.9,18.0,32,30.01,10.0,SSW,5.8,-,N/A,,Overcast,210,2013-03-22 21:53:00
6:53 PM,46.9,19.9,34,30.01,10.0,WSW,6.9,-,N/A,,Overcast,250,2013-03-22 22:53:00
7:53 PM,46.9,21.0,36,30.02,10.0,WSW,8.1,-,N/A,,Overcast,240,2013-03-22 23:53:00
8:53 PM,46.9,21.0,36,30.03,10.0,West,5.8,-,N/A,,Overcast,260,2013-03-23 00:53:00
9:53 PM,46.0,21.9,39,30.04,10.0,WSW,5.8,-,N/A,,Overcast,250,2013-03-23 01:53:00
10:53 PM,45.0,23.0,42,30.05,10.0,WSW,4.6,-,N/A,,Overcast,250,2013-03-23 02:53:00
11:53 PM,45.0,24.1,44,30.04,10.0,SW,3.5,-,N/A,,Overcast,220,2013-03-23 03:53:00